Location: ??????
(41.3164°N, 22.6615°E)
Time: 02:11:34
(UTC+00:00)

Okean 2 Rocket - Pass Details

Date: 16 October 2021
Orbit: 616 x 641 km, 82.5° (Epoch: 02 December)

Event Time Altitude Azimuth Distance (km) Brightness Sun altitude
Rises 16:14:15 0° 201° (SSW) 2,888 6.9 -5.9°
Reaches altitude 10° 16:16:32 10° 207° (SSW) 1,990 6.2 -6.3°
Maximum altitude 16:20:47 47° 281° (WNW) 841 4.3 -7.1°
Drops below altitude 10° 16:25:07 10° 356° (N) 2,021 5.7 -7.9°
Sets 16:27:27 0° 2° (N) 2,937 6.5 -8.4°
